Location: Biltmore Gardens
(41.6070°N, 83.4666°W)
Time: 14:30:56
(UTC+00:00)

Cosmos 2082 Rocket - Pass Details

Date: 14 July 2020
Orbit: 833 x 853 km, 71.0° (Epoch: 04 August)

Event Time Altitude Azimuth Distance (km) Brightness Sun altitude
Exits shadow 07:28:10 35° 160° (SSE) 1,357 2.9 -22.0°
Maximum altitude 07:30:13 51° 108° (ESE) 1,069 2.7 -21.8°
Drops below altitude 10° 07:35:43 10° 34° (NE) 2,487 5.8 -21.3°
Sets 07:38:13 0° 29° (NNE) 3,425 6.9 -21.1°
